Terug naar catalogus

STARLINK-6145

ActiefCommunicatieVLEO
NORAD 56389·PAYLOAD·🇺🇸 United States

Gelanceerd May 4, 2023 vanaf Cape Canaveral Space Force Station

Loading…

Volgende Passages (komende 24 uur)

TLE

VersSource: CelesTrak SupGP

Epoch: Sep 15, 2026, 02:14 UTC

1 56389C 23061R   26258.09354167 -.00020332  00000+0 -73662-3 0  2587
2 56389  42.9994 208.4449 0000925 255.0303 123.3030 15.27580713    17

Volg STARLINK-6145 in realtime met AllMySat

Download on the App Store